Lapse_Rate
3.5 4.0 4.4 4.8 5.0 4.9 5.3 5.6 5.8 5.8 5.6 5.8 6.1 6.3 6.4 6.4 6.4 6.0 5.7 5.6 5.8 6.5
4.1 4.6 4.6 4.7 5.0 5.1 5.4 6.0 6.4 6.4 6.2 5.9 6.1 6.4 6.9 7.3 7.1 7.1 6.9 6.3 6.2 6.3
4.8 4.7 4.9 4.9 4.7 4.9 5.2 5.6 5.9 6.2 6.4 6.5 6.4 6.4 6.8 7.0 7.3 7.9 7.8 7.9 7.5 6.8
4.9 5.0 5.0 5.2 5.1 5.2 5.4 5.5 5.8 6.2 6.6 7.0 7.4 7.7 7.8 7.6 7.8 8.4 8.4 8.5 8.4 8.2
5.1 5.2 5.2 5.2 5.3 5.6 5.6 6.1 6.4 6.6 6.9 7.3 7.7 8.1 8.4 8.2 8.5 8.9 8.6 8.6 8.7 8.6
4.7 4.7 4.8 5.2 5.5 6.0 6.3 6.4 6.7 7.2 7.2 7.4 7.9 8.3 8.6 8.7 8.5 8.5 8.3 8.4 8.7 8.4
4.9 5.2 5.4 5.5 5.9 6.4 6.7 6.9 7.1 7.2 7.4 7.8 7.7 8.3 8.5 8.8 8.7 8.6 8.7 8.6 8.8 8.8
5.0 5.3 5.5 5.7 6.3 6.6 6.7 6.8 6.6 6.9 6.8 7.0 7.5 8.3 8.3 8.4 8.0 7.9 8.0 8.0 8.1 8.3
5.1 5.5 5.6 5.9 6.5 6.5 6.1 6.0 6.3 6.3 6.8 7.3 8.1 9.1 9.4 9.0 8.0 7.6 7.6 7.5 7.9 7.8
5.4 5.5 5.5 5.9 5.9 5.7 5.9 6.1 6.2 6.7 7.2 7.3 7.4 9.1 9.4 9.1 8.1 7.5 7.5 7.8 8.2 7.8
5.1 5.2 5.1 5.4 5.4 5.4 6.1 6.4 6.9 7.6 7.8 7.7 7.8 9.2 9.1 9.0 7.9 7.4 7.4 7.5 8.0 8.5
4.6 4.6 5.1 4.7 5.2 5.5 6.5 7.0 7.3 7.7 7.5 7.6 8.1 9.2 9.2 8.7 7.4 7.2 7.4 7.6 8.0 8.0
4.2 4.5 4.6 4.9 5.2 6.5 7.0 7.1 7.7 7.8 8.1 8.1 7.5 7.7 8.8 8.4 7.4 6.7 6.6 7.1 7.5 8.9
3.6 4.4 4.6 5.8 6.5 7.1 7.5 7.4 7.4 7.8 7.3 7.2 6.8 6.8 8.3 8.7 7.8 7.4 7.3 6.1 6.7 7.2
Wind_Speed
8 7 8 10 9 9 9 9 19 19 20 20 21 20 19 12 11 12 11 13 10 9
10 11 11 13 14 10 15 16 19 21 19 21 21 20 18 11 13 13 13 13 13 11
12 12 13 14 14 15 17 20 18 18 19 18 20 20 15 13 14 14 12 11 14 13
13 13 14 13 14 14 19 20 16 15 17 17 16 15 15 16 17 17 16 16 16 17
14 14 15 15 17 21 17 22 17 16 18 18 17 17 17 18 17 18 18 17 17 18
15 15 15 16 17 17 18 18 17 18 19 19 19 18 18 19 19 19 20 19 19 19
16 16 16 17 18 18 17 19 19 19 20 19 20 20 19 19 20 20 20 20 20 20
16 17 17 18 18 18 18 19 20 20 20 20 19 15 18 20 21 21 22 22 21 21
17 18 18 19 19 19 20 20 20 20 21 21 16 31 35 29 20 20 20 21 21 21
18 19 19 19 20 20 20 20 21 21 21 23 22 35 37 37 21 19 19 21 19 17
18 19 20 20 21 21 19 21 20 21 21 21 18 34 36 37 23 20 22 22 22 22
19 20 20 21 21 21 20 20 20 20 20 19 20 33 36 32 20 20 22 21 22 22
19 20 20 21 22 21 21 20 15 20 18 27 22 32 36 30 15 18 16 22 22 36
19 19 20 20 19 20 19 19 17 19 18 20 21 22 33 33 19 15 15 13 14 14
Wind_Direction
297 293 297 299 297 293 291 288 289 288 286 286 286 285 283 278 275 272 267 265 258 261
300 302 301 298 296 294 291 289 288 287 284 283 280 279 277 273 271 269 269 267 266 261
300 297 297 297 295 294 293 291 289 288 285 282 280 278 275 273 268 266 264 262 261 260
300 300 298 295 294 292 292 291 289 286 284 280 278 275 272 270 269 265 263 260 259 259
299 298 296 293 291 291 289 288 287 285 283 280 277 273 269 267 265 265 262 259 256 255
299 298 294 292 292 292 290 288 287 284 281 279 276 272 268 265 263 260 258 256 253 253
300 299 297 296 295 293 291 289 287 283 280 277 275 272 269 264 261 258 256 254 252 251
301 301 299 298 298 296 293 289 286 284 280 277 273 271 268 262 259 256 254 250 248 247
305 305 303 302 300 298 294 290 287 284 281 279 274 273 273 274 266 258 250 248 246 244
308 307 305 305 302 297 296 292 288 285 282 278 275 275 276 275 268 261 255 252 249 244
309 307 306 304 302 298 297 294 290 287 283 280 276 277 280 278 271 261 254 248 245 244
310 307 307 305 302 300 298 294 292 289 290 289 288 287 285 282 273 263 256 249 241 238
307 306 303 302 300 300 296 294 298 297 295 291 289 284 286 284 274 267 258 245 233 237
309 305 303 301 300 300 304 302 299 299 293 290 282 283 285 286 285 280 281 249 228 221